DW1028 Weather Reports


time (UTC)temp
C
wind
direction
speed
KPH
gust
KPH
rain 1hr
cm
rain 24hr
cm
rain mn
cm
humidity
%
barometer
mb
20260508033049 16 267 11.3 24.1 0.00 0.00 0.00 25 1014.8
20260508031553 16 279 4.8 22.5 0.00 0.00 0.00 25 1014.6
20260508030052 17 295 14.5 22.5 0.00 0.00 0.00 24 1014.4
20260508024554 17 271 19.3 32.2 0.00 0.00 0.00 23 1014.3
20260508023054 17 259 16.1 27.4 0.00 0.00 0.00 22 1014.1
20260508021555 18 264 19.3 30.6 0.00 0.00 0.00 24 1014.4
20260508020057 18 252 17.7 32.2 0.00 0.00 0.00 23 1014.3
20260508014557 18 277 17.7 32.2 0.00 0.00 0.00 23 1014.3
20260508013050 19 248 19.3 37.0 0.00 0.00 0.00 21 1014.1
20260508011549 20 284 20.9 41.8 0.00 0.00 0.00 19 1014.1
20260508010048 21 306 22.5 33.8 0.00 0.00 0.00 18 1014.1
20260508004547 20 294 19.3 30.6 0.00 0.00 0.00 22 1014.2
20260508003054 20 288 16.1 27.4 0.00 0.00 0.00 22 1014.3
20260508001549 21 267 19.3 29.0 0.00 0.00 0.00 21 1014.3
20260508000059 21 291 17.7 29.0 0.00 0.00 0.00 22 1014.4
20260507234545 21 276 19.3 29.0 0.00 0.00 0.00 21 1014.3
20260507233048 21 287 17.7 25.7 0.00 0.00 0.00 25 1014.3
20260507231551 22 279 14.5 27.4 0.00 0.00 0.00 26 1014.4
20260507230052 22 248 16.1 25.7 0.00 0.00 0.00 24 1014.6
20260507224559 22 273 16.1 30.6 0.00 0.00 0.00 21 1014.7
20260507223055 21 297 19.3 30.6 0.00 0.00 0.00 21 1014.9
20260507221551 21 314 17.7 32.2 0.00 0.00 0.00 19 1015.0
20260507220053 21 317 19.3 27.4 0.00 0.00 0.00 19 1015.0
20260507214602 21 318 17.7 30.6 0.00 0.00 0.00 20 1015.2
20260507213048 21 347 17.7 27.4 0.00 0.00 0.00 23 1015.3
20260507211551 21 294 16.1 29.0 0.00 0.00 0.00 25 1015.3
20260507210059 21 305 22.5 32.2 0.00 0.00 0.00 24 1015.5
20260507204556 21 290 16.1 32.2 0.00 0.00 0.00 24 1015.7
20260507203103 21 292 20.9 32.2 0.00 0.00 0.00 26 1015.7
20260507201556 21 279 19.3 40.2 0.00 0.00 0.00 25 1015.8
20260507200104 21 269 14.5 24.1 0.00 0.00 0.00 29 1015.9
20260507194552 21 271 19.3 32.2 0.00 0.00 0.00 29 1016.0
20260507193049 20 217 11.3 33.8 0.00 0.00 0.00 28 1016.1
20260507191548 20 231 14.5 33.8 0.00 0.00 0.00 28 1016.1
20260507190052 20 248 17.7 29.0 0.00 0.00 0.00 29 1016.2
20260507184559 19 259 14.5 29.0 0.00 0.00 0.00 30 1016.4
20260507183052 18 224 20.9 30.6 0.00 0.00 0.00 30 1016.4
20260507181551 18 232 19.3 35.4 0.00 0.00 0.00 35 1016.4
20260507180051 18 286 14.5 27.4 0.00 0.00 0.00 36 1016.6
20260507174552 18 243 22.5 33.8 0.00 0.00 0.00 33 1016.5
20260507173050 17 219 20.9 35.4 0.00 0.00 0.00 37 1016.5
20260507171551 17 209 20.9 32.2 0.00 0.00 0.00 38 1016.5
20260507164600 16 227 17.7 25.7 0.00 0.00 0.00 49 1016.5
20260507163059 16 221 12.9 22.5 0.00 0.00 0.00 51 1016.6
20260507161558 15 219 17.7 27.4 0.00 0.00 0.00 56 1016.5
20260507160055 14 254 12.9 20.9 0.00 0.00 0.00 61 1016.6
20260507154559 13 210 12.9 22.5 0.00 0.00 0.00 63 1016.8
20260507153106 13 221 14.5 22.5 0.00 0.00 0.00 62 1017.0
20260507151550 13 245 14.5 22.5 0.00 0.00 0.00 65 1017.1
20260507150056 12 252 12.9 16.1 0.00 0.00 0.00 67 1017.0
20260507144551 12 212 11.3 19.3 0.00 0.00 0.00 69 1016.9
20260507143057 11 257 11.3 20.9 0.00 0.00 0.00 72 1016.9
20260507141553 11 225 12.9 24.1 0.00 0.00 0.00 75 1016.5
20260507140048 10 211 16.1 24.1 0.00 0.00 0.00 76 1016.4
20260507134552 10 243 12.9 20.9 0.00 0.00 0.00 78 1016.6
20260507133115 9 242 14.5 22.5 0.00 0.00 0.00 79 1016.6
20260507131552 10 224 17.7 27.4 0.00 0.00 0.00 78 1016.4
20260507130107 9 254 12.9 19.3 0.00 0.00 0.00 79 1016.4
20260507124550 9 209 12.9 19.3 0.00 0.00 0.00 80 1016.4
20260507123054 9 203 14.5 19.3 0.00 0.00 0.00 79 1016.4
20260507121605 10 193 4.8 11.3 0.00 0.00 0.00 76 1016.8
20260507120100 10 0 0.0 4.8 0.00 0.00 0.00 76 1017.0
20260507114633 10 0 3.2 11.3 0.00 0.00 0.00 74 1016.9
20260507113049 11 265 8.0 17.7 0.00 0.00 0.00 73 1016.7
20260507111548 11 254 8.0 12.9 0.00 0.00 0.00 72 1016.6
20260507110050 11 191 9.7 14.5 0.00 0.00 0.00 71 1016.4
20260507104552 12 263 9.7 19.3 0.00 0.00 0.00 70 1016.5
20260507103048 12 236 11.3 16.1 0.00 0.00 0.00 70 1016.4
20260507101549 12 231 9.7 17.7 0.00 0.00 0.00 68 1016.6
20260507100049 12 194 8.0 14.5 0.00 0.00 0.00 69 1016.5
20260507094550 12 212 6.4 12.9 0.00 0.00 0.00 68 1016.6
20260507093049 13 202 12.9 20.9 0.00 0.00 0.00 67 1016.4
20260507091552 12 197 9.7 17.7 0.00 0.00 0.00 68 1016.5
20260507090051 12 196 8.0 11.3 0.00 0.00 0.00 69 1016.5
20260507084557 13 214 8.0 12.9 0.00 0.00 0.00 68 1016.8
20260507083050 13 229 8.0 16.1 0.00 0.00 0.00 66 1016.6
20260507081552 13 254 8.0 17.7 0.00 0.00 0.00 66 1016.7
20260507080117 13 231 12.9 19.3 0.00 0.00 0.00 64 1016.6
20260507074548 13 227 16.1 24.1 0.00 0.00 0.00 64 1016.5
20260507073059 14 235 17.7 29.0 0.00 0.00 0.00 62 1016.4
20260507071549 14 236 16.1 24.1 0.00 0.00 0.00 59 1016.4
20260507070054 15 193 17.7 30.6 0.00 0.00 0.00 57 1016.6
20260507064555 15 248 20.9 37.0 0.00 0.00 0.00 54 1016.6
20260507063057 15 252 25.7 43.5 0.00 0.00 0.00 53 1016.5
20260507061554 15 235 17.7 32.2 0.00 0.00 0.00 52 1016.9
20260507060051 15 194 17.7 33.8 0.00 0.00 0.00 51 1017.0
20260507054552 15 198 14.5 29.0 0.00 0.00 0.00 51 1017.2
20260507053047 15 239 22.5 33.8 0.00 0.00 0.00 51 1017.0
20260507051552 16 204 19.3 37.0 0.00 0.00 0.00 49 1017.0
20260507050051 16 233 14.5 29.0 0.00 0.00 0.00 49 1017.1
20260507044548 16 225 12.9 22.5 0.00 0.00 0.00 49 1017.1
20260507043047 16 232 16.1 25.7 0.00 0.00 0.00 48 1017.0
20260507041551 16 209 14.5 33.8 0.00 0.00 0.00 48 1017.0
20260507040100 17 227 17.7 33.8 0.00 0.00 0.00 47 1016.9
20260507034556 17 248 22.5 33.8 0.00 0.00 0.00 46 1016.8